カタログに戻る

BEIDOU 3M5

運用中ナビゲーションMEO
NORAD 43207·PAYLOAD·🇨🇳 China

打ち上げ Feb 12, 2018 から Xichang Satellite Launch Center

Loading…

次のパス (今後24時間)

TLE

最新Source: CelesTrak SupGP

元期: Sep 14, 2026, 00:00 UTC

1 43207C 18018A   26257.00000000  .00000000  00000+0  00000+0 0  2571
2 43207  56.7329  60.2248 0005630  44.1669  90.6755  1.86231226    10

AllMySatでBEIDOU 3M5をリアルタイム追跡

Download on the App Store